| time (UTC) | temp F | wind direction | speed MPH | gust MPH | rain 1hr in | rain 24hr in | rain mn in | humidity % | barometer mb |
| 20260505185510 | 56 | 348 | 2.0 | 7.0 | 0.00 | 0.00 | 0.00 | 78 | 1016.5 |
| 20260505185011 | 57 | 350 | 0.0 | 7.0 | 0.00 | 0.00 | 0.00 | 74 | 1016.5 |
| 20260505184534 | 57 | 307 | 1.0 | 4.0 | 0.00 | 0.00 | 0.00 | 76 | 1016.5 |
| 20260505184012 | 57 | 327 | 0.0 | 1.0 | 0.00 | 0.00 | 0.00 | 75 | 1016.5 |
| 20260505183508 | 56 | 352 | 0.0 | 1.0 | 0.00 | 0.00 | 0.00 | 75 | 1016.5 |
| 20260505183123 | 56 | 306 | 0.0 | 5.0 | 0.00 | 0.00 | 0.00 | 76 | 1016.5 |
| 20260505183119 | 56 | 5 | 0.0 | 6.0 | 0.00 | 0.00 | 0.00 | 75 | 1016.5 |
| 20260505183117 | 56 | 292 | 0.0 | 0.0 | 0.00 | 0.00 | 0.00 | 75 | 1016.3 |
| 20260505183110 | 56 | 330 | 0.0 | 0.0 | 0.00 | 0.00 | 0.00 | 75 | 1016.3 |
| 20260505183106 | 56 | 326 | 1.0 | 4.0 | 0.00 | 0.00 | 0.00 | 74 | 1016.0 |
| 20260505183059 | 56 | 95 | 0.0 | 0.0 | 0.00 | 0.00 | 0.00 | 76 | 1015.8 |
| 20260505183052 | 55 | 11 | 0.0 | 0.0 | 0.00 | 0.00 | 0.00 | 77 | 1015.9 |
| 20260505183050 | 55 | 11 | 0.0 | 0.0 | 0.00 | 0.00 | 0.00 | 77 | 1015.9 |
| 20260505183048 | 54 | 5 | 0.0 | 0.0 | 0.00 | 0.00 | 0.00 | 78 | 1015.7 |
| 20260505183043 | 54 | 5 | 0.0 | 1.0 | 0.00 | 0.00 | 0.00 | 79 | 1015.7 |
| 20260505183041 | 54 | 185 | 0.0 | 0.0 | 0.00 | 0.00 | 0.00 | 79 | 1015.7 |
| 20260505183039 | 54 | 185 | 0.0 | 0.0 | 0.00 | 0.00 | 0.00 | 79 | 1015.6 |
| 20260505183037 | 53 | 185 | 0.0 | 0.0 | 0.00 | 0.00 | 0.00 | 80 | 1015.5 |
| 20260505183013 | 53 | 185 | 0.0 | 0.0 | 0.00 | 0.00 | 0.00 | 80 | 1015.4 |
| 20260505183003 | 53 | 185 | 0.0 | 0.0 | 0.00 | 0.00 | 0.00 | 80 | 1015.4 |
| 20260505183000 | 53 | 185 | 0.0 | 0.0 | 0.00 | 0.00 | 0.00 | 80 | 1015.4 |
| 20260505182956 | 53 | 185 | 0.0 | 0.0 | 0.00 | 0.00 | 0.00 | 80 | 1015.4 |
| 20260505182953 | 53 | 185 | 0.0 | 0.0 | 0.00 | 0.00 | 0.00 | 81 | 1015.4 |
| 20260505182949 | 53 | 185 | 0.0 | 0.0 | 0.00 | 0.00 | 0.00 | 81 | 1015.3 |
| 20260505182945 | 52 | 185 | 0.0 | 0.0 | 0.00 | 0.00 | 0.00 | 81 | 1015.2 |
| 20260505182940 | 52 | 185 | 0.0 | 0.0 | 0.00 | 0.00 | 0.00 | 81 | 1015.2 |
| 20260505182935 | 52 | 185 | 0.0 | 0.0 | 0.00 | 0.00 | 0.00 | 81 | 1015.0 |
| 20260505182932 | 52 | 185 | 0.0 | 0.0 | 0.00 | 0.00 | 0.00 | 82 | 1014.7 |
| 20260505182927 | 52 | 186 | 0.0 | 0.0 | 0.00 | 0.00 | 0.00 | 81 | 1014.7 |
| 20260505182925 | 52 | 192 | 0.0 | 0.0 | 0.00 | 0.00 | 0.00 | 81 | 1014.6 |
| 20260505182920 | 52 | 234 | 0.0 | 0.0 | 0.00 | 0.00 | 0.00 | 82 | 1014.7 |
| 20260505182914 | 52 | 319 | 0.0 | 0.0 | 0.00 | 0.00 | 0.00 | 81 | 1014.5 |
| 20260505182910 | 52 | 229 | 0.0 | 0.0 | 0.00 | 0.00 | 0.00 | 80 | 1014.5 |
| 20260505182905 | 52 | 229 | 0.0 | 0.0 | 0.00 | 0.00 | 0.00 | 80 | 1014.5 |
| 20260505182901 | 52 | 229 | 0.0 | 0.0 | 0.00 | 0.00 | 0.00 | 80 | 1014.6 |
| 20260505182855 | 52 | 229 | 0.0 | 0.0 | 0.00 | 0.00 | 0.00 | 79 | 1014.6 |
| 20260505182851 | 52 | 229 | 0.0 | 0.0 | 0.00 | 0.00 | 0.00 | 78 | 1014.7 |
| 20260505182843 | 52 | 230 | 0.0 | 0.0 | 0.00 | 0.00 | 0.00 | 78 | 1014.9 |
| 20260505182839 | 52 | 230 | 0.0 | 0.0 | 0.00 | 0.00 | 0.00 | 78 | 1014.9 |
| 20260505182836 | 52 | 230 | 0.0 | 0.0 | 0.00 | 0.00 | 0.00 | 77 | 1014.9 |
| 20260505182832 | 52 | 230 | 0.0 | 0.0 | 0.00 | 0.00 | 0.00 | 77 | 1014.9 |
| 20260505182829 | 52 | 230 | 0.0 | 0.0 | 0.00 | 0.00 | 0.00 | 77 | 1014.9 |
| 20260505182825 | 52 | 230 | 0.0 | 0.0 | 0.00 | 0.00 | 0.00 | 76 | 1014.9 |
| 20260505182821 | 52 | 230 | 0.0 | 0.0 | 0.00 | 0.00 | 0.00 | 76 | 1014.9 |
| 20260505182818 | 52 | 230 | 0.0 | 0.0 | 0.00 | 0.00 | 0.00 | 76 | 1014.9 |
| 20260505182811 | 53 | 230 | 0.0 | 0.0 | 0.00 | 0.00 | 0.00 | 76 | 1014.9 |
| 20260505182807 | 53 | 229 | 0.0 | 0.0 | 0.00 | 0.00 | 0.00 | 76 | 1014.9 |
| 20260505182802 | 53 | 254 | 0.0 | 1.0 | 0.00 | 0.00 | 0.00 | 76 | 1015.0 |
| 20260505182800 | 53 | 235 | 0.0 | 2.0 | 0.00 | 0.00 | 0.00 | 75 | 1014.9 |
| 20260505182752 | 53 | 227 | 0.0 | 7.0 | 0.00 | 0.00 | 0.00 | 76 | 1015.0 |
| 20260505182748 | 53 | 248 | 0.0 | 6.0 | 0.00 | 0.00 | 0.00 | 77 | 1015.0 |
| 20260505182744 | 53 | 258 | 0.0 | 0.0 | 0.00 | 0.00 | 0.00 | 77 | 1014.9 |
| 20260505182740 | 53 | 259 | 0.0 | 0.0 | 0.00 | 0.00 | 0.00 | 75 | 1015.1 |
| 20260505182736 | 53 | 262 | 0.0 | 1.0 | 0.00 | 0.00 | 0.00 | 75 | 1015.1 |
| 20260505182732 | 53 | 248 | 0.0 | 1.0 | 0.00 | 0.00 | 0.00 | 74 | 1015.0 |
| 20260505182729 | 53 | 276 | 0.0 | 3.0 | 0.00 | 0.00 | 0.00 | 73 | 1015.3 |
| 20260505182725 | 53 | 261 | 0.0 | 4.0 | 0.00 | 0.00 | 0.00 | 74 | 1015.5 |
| 20260505182722 | 53 | 252 | 0.0 | 4.0 | 0.00 | 0.00 | 0.00 | 74 | 1015.5 |
| 20260505182718 | 53 | 296 | 0.0 | 8.0 | 0.00 | 0.00 | 0.00 | 77 | 1015.6 |
| 20260505182713 | 53 | 350 | 0.0 | 3.0 | 0.00 | 0.00 | 0.00 | 78 | 1015.6 |
| 20260505182711 | 54 | 325 | 0.0 | 6.0 | 0.00 | 0.00 | 0.00 | 78 | 1015.6 |
| 20260505182705 | 54 | 256 | 0.0 | 3.0 | 0.00 | 0.00 | 0.00 | 81 | 1015.6 |
| 20260505182703 | 54 | 252 | 0.0 | 3.0 | 0.00 | 0.00 | 0.00 | 82 | 1015.8 |
| 20260505182656 | 54 | 250 | 0.0 | 0.0 | 0.00 | 0.00 | 0.00 | 83 | 1015.7 |
| 20260505182651 | 54 | 263 | 0.0 | 1.0 | 0.00 | 0.00 | 0.00 | 82 | 1015.6 |
| 20260505182649 | 54 | 256 | 0.0 | 0.0 | 0.00 | 0.00 | 0.00 | 82 | 1015.6 |
| 20260505182643 | 54 | 233 | 0.0 | 0.0 | 0.00 | 0.00 | 0.00 | 82 | 1015.6 |
| 20260505182639 | 54 | 232 | 0.0 | 0.0 | 0.00 | 0.00 | 0.00 | 81 | 1015.5 |
| 20260505182635 | 54 | 232 | 0.0 | 0.0 | 0.00 | 0.00 | 0.00 | 81 | 1015.3 |
| 20260505182630 | 54 | 232 | 0.0 | 0.0 | 0.00 | 0.00 | 0.00 | 81 | 1015.4 |
| 20260505182627 | 54 | 232 | 0.0 | 0.0 | 0.00 | 0.00 | 0.00 | 81 | 1015.4 |
| 20260505182623 | 54 | 237 | 0.0 | 0.0 | 0.00 | 0.00 | 0.00 | 80 | 1015.5 |
| 20260505182618 | 54 | 237 | 0.0 | 0.0 | 0.00 | 0.00 | 0.00 | 80 | 1015.4 |
| 20260505182614 | 55 | 239 | 0.0 | 0.0 | 0.00 | 0.00 | 0.00 | 79 | 1015.2 |
| 20260505182609 | 55 | 242 | 0.0 | 0.0 | 0.00 | 0.00 | 0.00 | 78 | 1015.4 |
| 20260505182607 | 55 | 244 | 0.0 | 0.0 | 0.00 | 0.00 | 0.00 | 78 | 1015.5 |
| 20260505182602 | 56 | 261 | 0.0 | 0.0 | 0.00 | 0.00 | 0.00 | 78 | 1015.6 |
| 20260505182557 | 56 | 329 | 0.0 | 4.0 | 0.00 | 0.00 | 0.00 | 78 | 1015.7 |
| 20260505182555 | 56 | 259 | 0.0 | 0.0 | 0.00 | 0.00 | 0.00 | 77 | 1015.9 |
| 20260505182550 | 56 | 258 | 0.0 | 2.0 | 0.00 | 0.00 | 0.00 | 77 | 1015.8 |
| 20260505182548 | 56 | 282 | 0.0 | 3.0 | 0.00 | 0.00 | 0.00 | 77 | 1015.7 |
| 20260505182541 | 56 | 267 | 0.0 | 0.0 | 0.00 | 0.00 | 0.00 | 77 | 1015.6 |
| 20260505182535 | 57 | 272 | 0.0 | 4.0 | 0.00 | 0.00 | 0.00 | 75 | 1015.3 |
| 20260505182533 | 57 | 360 | 0.0 | 3.0 | 0.00 | 0.00 | 0.00 | 75 | 1015.3 |
| 20260505182531 | 57 | 323 | 0.0 | 2.0 | 0.00 | 0.00 | 0.00 | 75 | 1015.3 |
| 20260505182524 | 57 | 327 | 0.0 | 3.0 | 0.00 | 0.00 | 0.00 | 75 | 1015.3 |
| 20260505182521 | 57 | 281 | 0.0 | 0.0 | 0.00 | 0.00 | 0.00 | 73 | 1015.0 |
| 20260505182513 | 57 | 304 | 0.0 | 3.0 | 0.00 | 0.00 | 0.00 | 73 | 1014.9 |
| 20260505182508 | 57 | 291 | 0.0 | 3.0 | 0.00 | 0.00 | 0.00 | 73 | 1014.7 |
| 20260505182505 | 58 | 333 | 0.0 | 1.0 | 0.00 | 0.00 | 0.00 | 72 | 1014.5 |
| 20260505182502 | 58 | 301 | 0.0 | 4.0 | 0.00 | 0.00 | 0.00 | 72 | 1014.5 |
| 20260505182458 | 58 | 341 | 0.0 | 4.0 | 0.00 | 0.00 | 0.00 | 72 | 1014.6 |
| 20260505182455 | 58 | 19 | 0.0 | 3.0 | 0.00 | 0.00 | 0.00 | 71 | 1014.7 |
| 20260505182453 | 58 | 331 | 0.0 | 3.0 | 0.00 | 0.00 | 0.00 | 71 | 1014.7 |
| 20260505182445 | 58 | 258 | 0.0 | 6.0 | 0.00 | 0.00 | 0.00 | 70 | 1014.7 |
| 20260505182441 | 58 | 15 | 0.0 | 9.0 | 0.00 | 0.00 | 0.00 | 70 | 1014.7 |
| 20260505182439 | 59 | 341 | 0.0 | 8.0 | 0.00 | 0.00 | 0.00 | 69 | 1014.5 |
| 20260505182435 | 59 | 315 | 3.0 | 10.0 | 0.00 | 0.00 | 0.00 | 67 | 1014.5 |
| 20260505182430 | 59 | 318 | 0.0 | 7.0 | 0.00 | 0.00 | 0.00 | 66 | 1014.5 |
| 20260505182426 | 59 | 306 | 0.0 | 4.0 | 0.00 | 0.00 | 0.00 | 66 | 1014.4 |
| 20260505182421 | 60 | 316 | 0.0 | 4.0 | 0.00 | 0.00 | 0.00 | 66 | 1014.4 |
| 20260505182416 | 60 | 301 | 0.0 | 6.0 | 0.00 | 0.00 | 0.00 | 67 | 1014.4 |
| 20260505182413 | 60 | 311 | 0.0 | 4.0 | 0.00 | 0.00 | 0.00 | 68 | 1014.6 |
| 20260505182408 | 60 | 323 | 0.0 | 7.0 | 0.00 | 0.00 | 0.00 | 67 | 1014.7 |
| 20260505182401 | 60 | 255 | 1.0 | 8.0 | 0.00 | 0.00 | 0.00 | 67 | 1014.8 |
| 20260505182357 | 61 | 250 | 0.0 | 7.0 | 0.00 | 0.00 | 0.00 | 67 | 1014.8 |
| 20260505182353 | 61 | 227 | 0.0 | 5.0 | 0.00 | 0.00 | 0.00 | 67 | 1014.8 |
| 20260505182347 | 61 | 336 | 1.0 | 8.0 | 0.00 | 0.00 | 0.00 | 67 | 1014.7 |
| 20260505182343 | 61 | 9 | 3.0 | 8.0 | 0.00 | 0.00 | 0.00 | 65 | 1014.7 |
| 20260505182338 | 61 | 5 | 0.0 | 6.0 | 0.00 | 0.00 | 0.00 | 65 | 1014.6 |
| 20260505182333 | 62 | 327 | 1.0 | 8.0 | 0.00 | 0.00 | 0.00 | 66 | 1014.4 |
| 20260505182330 | 62 | 321 | 3.0 | 10.0 | 0.00 | 0.00 | 0.00 | 65 | 1014.4 |
| 20260505182324 | 63 | 308 | 1.0 | 12.0 | 0.00 | 0.00 | 0.00 | 63 | 1014.5 |
| 20260505182320 | 62 | 248 | 0.0 | 0.0 | 0.00 | 0.00 | 0.00 | 66 | 1014.5 |
| 20260505013810 | 62 | 227 | 0.0 | 0.0 | 0.00 | 0.00 | 0.00 | 65 | 1014.5 |
| 20260505010947 | 62 | 227 | 0.0 | 2.0 | 0.00 | 0.00 | 0.00 | 63 | 1014.5 |
| 20260505005259 | 62 | 227 | 0.0 | 2.0 | 0.00 | 0.00 | 0.00 | 64 | 1014.5 |
| 20260505003402 | 62 | 257 | 0.0 | 6.0 | 0.00 | 0.00 | 0.00 | 63 | 1014.5 |
| 20260505001948 | 62 | 257 | 1.0 | 6.0 | 0.00 | 0.00 | 0.00 | 64 | 1014.5 |
| 20260505000947 | 62 | 239 | 0.0 | 4.0 | 0.00 | 0.00 | 0.00 | 63 | 1014.5 |
| 20260505000042 | 62 | 273 | 0.0 | 7.0 | 0.00 | 0.00 | 0.00 | 64 | 1014.5 |
| 20260504234808 | 62 | 257 | 0.0 | 7.0 | 0.00 | 0.00 | 0.00 | 64 | 1014.6 |
| 20260504234210 | 62 | 281 | 0.0 | 5.0 | 0.00 | 0.00 | 0.00 | 65 | 1014.6 |
| 20260504233445 | 62 | 326 | 0.0 | 5.0 | 0.00 | 0.00 | 0.00 | 65 | 1014.6 |
| 20260504232729 | 62 | 324 | 1.0 | 4.0 | 0.00 | 0.00 | 0.00 | 65 | 1014.7 |
| 20260504231423 | 62 | 284 | 0.0 | 4.0 | 0.00 | 0.00 | 0.00 | 64 | 1014.7 |
| 20260504230714 | 62 | 286 | 0.0 | 4.0 | 0.00 | 0.00 | 0.00 | 64 | 1014.7 |
| 20260504230212 | 62 | 250 | 0.0 | 4.0 | 0.00 | 0.00 | 0.00 | 63 | 1014.7 |
| 20260504225138 | 62 | 286 | 0.0 | 4.0 | 0.00 | 0.00 | 0.00 | 63 | 1014.7 |
| 20260504224104 | 62 | 266 | 0.0 | 3.0 | 0.00 | 0.00 | 0.00 | 64 | 1014.7 |
| 20260504223358 | 62 | 247 | 0.0 | 2.0 | 0.00 | 0.00 | 0.00 | 64 | 1014.9 |
| 20260504222540 | 62 | 360 | 0.0 | 5.0 | 0.00 | 0.00 | 0.00 | 63 | 1014.9 |
| 20260504221948 | 62 | 320 | 0.0 | 8.0 | 0.00 | 0.00 | 0.00 | 62 | 1014.9 |
| 20260504221238 | 62 | 288 | 1.0 | 8.0 | 0.00 | 0.00 | 0.00 | 64 | 1014.8 |
| 20260504220422 | 62 | 319 | 0.0 | 4.0 | 0.00 | 0.00 | 0.00 | 63 | 1014.8 |
| 20260504215459 | 62 | 321 | 0.0 | 6.0 | 0.00 | 0.00 | 0.00 | 63 | 1014.8 |
| 20260504215120 | 62 | 327 | 2.0 | 7.0 | 0.00 | 0.00 | 0.00 | 61 | 1014.9 |
| 20260504213827 | 63 | 281 | 0.0 | 7.0 | 0.00 | 0.00 | 0.00 | 61 | 1014.9 |
| 20260504212909 | 63 | 234 | 0.0 | 6.0 | 0.00 | 0.00 | 0.00 | 60 | 1014.9 |
| 20260504211945 | 62 | 302 | 0.0 | 5.0 | 0.00 | 0.00 | 0.00 | 60 | 1014.9 |
| 20260504210955 | 63 | 336 | 0.0 | 5.0 | 0.00 | 0.00 | 0.00 | 60 | 1015.0 |
| 20260504210143 | 63 | 323 | 0.0 | 9.0 | 0.00 | 0.00 | 0.00 | 58 | 1015.0 |
| 20260504205445 | 63 | 234 | 2.0 | 9.0 | 0.00 | 0.00 | 0.00 | 57 | 1015.0 |
| 20260504204635 | 63 | 247 | 1.0 | 6.0 | 0.00 | 0.00 | 0.00 | 58 | 1015.0 |
| 20260504203933 | 63 | 315 | 3.0 | 8.0 | 0.00 | 0.00 | 0.00 | 57 | 1015.0 |
| 20260504203124 | 64 | 307 | 1.0 | 11.0 | 0.00 | 0.00 | 0.00 | 57 | 1015.0 |
| 20260504202532 | 63 | 313 | 2.0 | 11.0 | 0.00 | 0.00 | 0.00 | 59 | 1015.0 |
| 20260504201829 | 63 | 286 | 0.0 | 4.0 | 0.00 | 0.00 | 0.00 | 61 | 1015.1 |
| 20260504201241 | 63 | 315 | 0.0 | 5.0 | 0.00 | 0.00 | 0.00 | 60 | 1015.1 |
| 20260504200653 | 63 | 236 | 0.0 | 7.0 | 0.00 | 0.00 | 0.00 | 58 | 1015.1 |
| 20260504200059 | 63 | 176 | 0.0 | 7.0 | 0.00 | 0.00 | 0.00 | 58 | 1015.1 |
| 20260504195505 | 63 | 308 | 0.0 | 3.0 | 0.00 | 0.00 | 0.00 | 60 | 1015.1 |
| 20260504195010 | 62 | 146 | 0.0 | 3.0 | 0.00 | 0.00 | 0.00 | 58 | 1015.1 |
| 20260504194520 | 62 | 242 | 0.0 | 0.0 | 0.00 | 0.00 | 0.00 | 57 | 1015.2 |
| 20260504194129 | 62 | 326 | 0.0 | 1.0 | 0.00 | 0.00 | 0.00 | 56 | 1015.2 |
| 20260504193509 | 62 | 253 | 0.0 | 1.0 | 0.00 | 0.00 | 0.00 | 59 | 1015.2 |
| 20260504193030 | 62 | 218 | 0.0 | 0.0 | 0.00 | 0.00 | 0.00 | 57 | 1015.2 |
| 20260504192537 | 62 | 245 | 0.0 | 0.0 | 0.00 | 0.00 | 0.00 | 59 | 1015.2 |
| 20260504192013 | 62 | 198 | 0.0 | 0.0 | 0.00 | 0.00 | 0.00 | 57 | 1015.2 |
| 20260504191506 | 62 | 277 | 0.0 | 0.0 | 0.00 | 0.00 | 0.00 | 60 | 1015.2 |
| 20260504191006 | 62 | 265 | 0.0 | 0.0 | 0.00 | 0.00 | 0.00 | 61 | 1015.4 |
| 20260504190506 | 62 | 16 | 0.0 | 0.0 | 0.00 | 0.00 | 0.00 | 59 | 1015.3 |
| 20260504190032 | 62 | 308 | 0.0 | 0.0 | 0.00 | 0.00 | 0.00 | 58 | 1015.4 |